Location: Unspecified
(0.0000°N, 0.0000°E)
Time: 20:04:45
(UTC+00:00)

deb Briz - Pass Details

Date: 22 February 2026
Orbit: 1858 x 2172 km, 64.9° (Epoch: 11 March)

Event Time Altitude Azimuth Distance (km) Brightness Sun altitude
Rises 03:06:32 0° 193° (SSW) 5,476 ? -45.8°
Reaches altitude 10° 03:09:54 10° 189° (S) 4,513 ? -45.0°
Maximum altitude 03:21:33 62° 110° (ESE) 2,337 ? -42.2°
Drops below altitude 10° 03:33:36 10° 33° (NNE) 4,680 ? -39.2°
Sets 03:37:08 0° 30° (NNE) 5,688 ? -38.4°
